Location: Corbeny
(49.4627°N, 3.8231°E)
Time: 17:55:24
(UTC+00:00)

Daily predictions for brighter satellites

Satellite Brightness Start Highest point End
(mag) Time Altitude Azimuth Time Altitude Azimuth Time Altitude Azimuth
NOSS 2-2 (D) 4.4 16:50:22 10° NW 16:55:36 67° NE 17:02:54 10° SE
GENESIS II 4.4 16:55:03 10° SSW 16:59:00 60° SE 17:03:00 10° NE
CZ-4C R/B 3.4 16:56:32 10° N 16:59:46 61° WNW 17:03:05 10° SSW
Landsat 5 3.6 16:56:38 10° N 17:00:31 75° WNW 17:04:29 10° SSW
USA 307 3.2 16:58:27 10° WNW 17:02:41 54° NNE 17:06:53 10° E
Meteor 2-21 Rocket 4.5 16:56:57 10° N 17:03:07 64° ENE 17:09:11 10° SSE
CZ-4B R/B 3.4 16:57:56 10° SSE 17:03:33 86° WSW 17:09:05 10° NNW
Cosmos 1939 Rocket 3.6 17:00:40 10° SE 17:04:06 29° ENE 17:07:31 10° N
YAOGAN 1 4.0 17:02:11 10° ESE 17:05:11 19° ENE 17:08:12 10° NNE
Okean O Rocket 1.7 17:03:02 10° SSE 17:07:24 88° WSW 17:11:48 10° NNW
SeaSat 1 4.1 17:04:28 10° ENE 17:07:31 17° NE 17:10:35 10° N
USA 308 3.2 17:03:22 10° WNW 17:07:37 56° NNE 17:11:50 10° E
Cosmos 1408 4.2 17:06:24 10° NNE 17:08:38 15° ENE 17:10:50 10° ESE
Cosmos 1331 Rocket 4.0 17:03:36 10° S 17:08:41 66° ESE 17:13:49 10° NNE
Timation 2 Rocket 4.2 17:02:24 10° NNW 17:09:02 84° ENE 17:15:52 10° SSE
Meteor 2-14 Rocket 4.5 17:04:04 10° N 17:10:15 85° E 17:16:23 10° S
Cosmos 2227 Rocket 2.4 17:07:29 10° NNW 17:13:01 51° NE 17:18:31 10° SE
Cosmos 1908 4.0 17:09:31 10° SSW 17:13:18 55° WNW 17:17:08 10° N
NOAA 12 4.2 17:08:26 10° SSE 17:13:45 84° WSW 17:19:07 10° NNW
Cosmos 1726 Rocket 3.7 17:09:37 10° S 17:13:50 51° E 17:18:06 10° NNE
USA 215 3.9 17:07:47 10° ENE 17:13:58 46° N 17:20:09 10° WNW
Cosmos 1892 3.7 17:11:23 10° NNE 17:14:40 26° ENE 17:17:58 10° SE
ATLAS 2AS CENTAUR R/B 3.8 17:08:58 10° NW 17:15:49 32° NNE 17:22:01 11° E
Cosmos 2263 Rocket 3.9 17:12:36 10° N 17:16:05 16° NNE 17:19:27 10° ENE
Cosmos 1758 Rocket 4.1 17:11:49 10° NNW 17:16:12 64° W 17:20:29 10° S
Helios 1A Rocket 3.8 17:12:49 10° SE 17:16:24 29° ENE 17:19:58 10° N
Cosmos 2228 2.9 17:12:42 10° S 17:16:56 73° E 17:21:13 10° NNE
Aureole 3 Rocket 3.8 17:14:40 10° SSE 17:18:34 38° E 17:23:50 10° NNE
Cosmos 1400 Rocket 3.5 17:15:01 10° SSE 17:18:46 35° E 17:22:30 10° NNE
Cosmos 292 Rocket 3.8 17:16:18 10° S 17:21:02 65° ESE 17:25:50 10° NNE
Cosmos 968 Rocket 3.8 17:17:36 10° NNW 17:22:40 46° ENE 17:27:38 10° SE
IRS-1C Rocket 4.2 17:17:47 10° SE 17:22:54 54° ENE 17:28:03 10° N
Cosmos 1553 Rocket 4.4 17:19:45 10° SSE 17:25:35 40° E 17:31:21 10° NNE
Cosmos 1300 2.6 17:23:17 10° S 17:27:04 71° E 17:30:53 10° NNE
FALCON 9 DEB 3.2 17:24:01 10° SW 17:27:11 55° SSE 17:29:34 16° ENE
Lacrosse 5 2.9 17:23:21 10° WNW 17:28:02 35° N 17:32:14 12° ENE
Cosmos 1606 Rocket 3.6 17:25:29 10° S 17:29:51 88° W 17:34:19 10° N
CZ-4 R/B 2.0 17:26:44 10° SE 17:30:10 30° ENE 17:33:34 10° N
FALCON 9 DEB 3.1 17:27:06 10° SW 17:30:16 60° SSE 17:32:31 17° ENE
Cosmos 1697 Rocket 3.7 17:26:02 10° SSE 17:30:20 23° ESE 17:34:42 10° NE
SMAP 4.0 17:26:48 10° S 17:31:21 53° W 17:35:56 10° NNW
Cosmos 2058 3.7 17:28:07 10° N 17:31:45 29° ENE 17:35:22 10° SE
Cosmos 1825 3.6 17:30:17 10° NNE 17:33:02 19° ENE 17:34:22 16° E
SAR-Lupe-4 3.7 17:30:30 10° NNE 17:34:00 50° E 17:37:29 10° S
ERBS 4.0 17:32:40 10° NW 17:35:21 22° N 17:37:25 13° NE
SKYMED 2 3.8 17:33:20 10° NNE 17:37:33 46° E 17:41:43 10° S
ERS-2 2.2 17:34:19 10° NNE 17:37:59 80° WNW 17:41:37 10° SSW
CZ-2D R/B 3.4 17:34:31 10° SE 17:38:09 47° ENE 17:41:50 10° N
Cosmos 1110 Rocket 4.4 17:33:09 10° SSW 17:38:22 68° WNW 17:43:36 10° NNE
FALCON 9 DEB 3.6 17:35:31 10° WNW 17:38:53 48° N 17:40:54 21° ENE
ADEOS Rocket 4.0 17:33:45 10° N 17:39:57 56° WNW 17:46:48 10° SW
SL-4 R/B 1.8 17:36:56 10° WNW 17:40:25 62° N 17:42:47 21° E
Cosmos 1302 Rocket 4.0 17:35:17 10° S 17:40:30 66° ESE 17:45:46 10° NNE
Cosmos 1346 Rocket 3.3 17:37:46 10° N 17:41:32 38° ENE 17:45:16 10° SE
NOAA 11 4.3 17:36:06 10° SSE 17:41:33 79° WSW 17:47:01 10° NNW
Okean-O 2.8 17:38:31 10° SE 17:42:46 48° ENE 17:47:03 10° N
FALCON 9 DEB 2.9 17:40:24 10° WSW 17:43:38 71° SSE 17:45:25 24° ENE
USA 281 4.1 17:37:41 10° S 17:44:03 52° WSW 17:50:28 10° NW
SL-08 R/B 4.4 17:38:38 10° N 17:44:48 66° ENE 17:50:52 10° SSE
Cosmos 1340 2.5 17:41:20 10° N 17:45:08 82° ENE 17:48:55 10° SSE
Cosmos 1486 Rocket 4.0 17:42:27 10° NNW 17:47:49 74° ENE 17:53:08 10° SSE
Cosmos 1745 Rocket 4.1 17:43:27 10° N 17:49:37 54° ENE 17:55:48 10° SSE
Cosmos 1315 Rocket 3.6 17:47:52 10° SSE 17:51:16 28° E 17:54:02 14° NE
SAR-Lupe-1 3.9 17:48:18 10° NNE 17:51:55 76° ESE 17:55:30 10° S
Cosmos 1689 Rocket 2.0 17:49:44 10° NNE 17:52:36 56° ESE 17:55:27 10° S
Cosmos 2297 Rocket 2.4 17:47:07 10° NNW 17:52:48 76° WSW 17:58:26 10° SSE
USA 305 2.8 17:48:43 10° WNW 17:53:03 82° NNE 17:55:45 22° ESE
Cosmos 1980 Rocket 3.4 17:49:43 10° SE 17:53:26 19° ESE 17:53:26 19° ESE
FALCON 9 DEB 2.8 17:50:59 10° WSW 17:54:12 86° SSE 17:55:34 32° ENE
In-Cosmos 22 Rocket 4.1 17:49:28 10° NNW 17:54:52 87° ENE 18:00:21 10° S
CZ-4B R/B 2.3 17:52:15 10° N 17:55:23 48° WNW 17:58:25 10° SSW
Cosmos 1503 Rocket 4.1 17:52:40 10° NNW 17:57:48 54° ENE 18:02:57 10° SE
USA 306 2.8 17:55:12 10° WNW 17:59:31 87° NNE 18:01:57 25° ESE
CSL-04 Debris 4.4 17:55:17 10° SE 18:00:28 47° ENE 18:05:42 10° N
Aureole 3 2.7 17:57:45 10° SSW 18:00:49 76° W 18:03:48 10° N
Cosmos 2058 Rocket 3.3 18:01:04 10° SSW 18:05:34 77° W 18:10:07 10° N
CZ-2C R/B 3.2 18:03:19 10° SSE 18:09:03 69° ENE 18:14:37 10° N
Cosmos 1354 Rocket 4.0 18:04:48 10° NNW 18:10:01 60° ENE 18:14:14 16° SE
CZ-4C R/B 3.7 18:07:48 10° NW 18:13:42 33° NNE 18:17:00 24° ENE
Cosmos 1455 2.2 18:11:19 10° S 18:14:58 50° E 18:17:16 21° NNE
Cosmos 1992 Rocket 4.0 18:13:11 10° S 18:18:16 57° ESE 18:22:43 14° NNE
Cosmos 1709 Rocket 4.1 18:13:02 10° N 18:19:16 52° ENE 18:25:28 10° SSE
Meteor 2-10 Rocket 3.4 18:15:25 10° S 18:20:40 72° E 18:25:47 10° NNE
Cosmos 1076 Rocket 3.3 18:16:45 10° N 18:21:00 68° E 18:25:00 11° SSE
Cosmos 2219 4.4 18:19:12 10° NW 18:24:36 43° WSW 18:29:59 10° S
Cosmos 2278 4.2 18:19:43 10° S 18:24:48 35° ESE 18:24:51 35° ESE
COSMO-SKYMED 1 3.1 18:21:21 10° N 18:25:40 61° WNW 18:29:56 10° SSW
Meteor 2-3 Rocket 4.4 18:21:52 10° N 18:27:03 33° ENE 18:27:07 33° ENE
Ariane Rocket 3.9 18:30:46 30° NE 18:30:46 30° NE 18:34:34 10° N
Geosat 4.2 18:29:49 40° ENE 18:31:02 48° ESE 18:35:53 10° S
Cosmos 44 4.4 18:27:38 10° WSW 18:31:58 40° NW 18:35:30 16° NNE
Cosmos 2082 3.8 18:27:01 10° NNW 18:32:47 79° WSW 18:38:04 12° SSE
ATLAS 5 CENTAUR R/B 3.9 18:31:03 10° NW 18:34:11 17° N 18:36:16 14° NNE
H-2A R/B 2.0 18:30:09 10° SSE 18:35:35 81° ENE 18:41:05 10° NNW
Cosmos 883 Rocket 4.4 18:29:57 10° S 18:35:57 59° E 18:41:58 10° NNE
SJ-11-01 4.1 18:34:07 14° SSE 18:38:08 86° ENE 18:42:51 10° NNW
ARGOS 3.1 18:36:01 26° SSE 18:39:08 67° ENE 18:44:33 10° N
CRYOSAT 2 4.2 18:35:13 10° N 18:40:06 84° E 18:44:59 10° S
YAOGAN 1 3.1 18:36:37 10° S 18:40:53 59° WSW 18:45:11 10° NNW
S3M 4.0 18:35:34 10° S 18:41:41 84° W 18:47:56 10° N
USA 307 3.3 18:38:36 10° WNW 18:42:48 56° SW 18:43:36 47° S
Cosmos 2315 Rocket 4.0 18:37:22 10° SSE 18:43:22 55° E 18:49:25 10° NNE
GEOS 3 Rocket 3.6 18:41:32 38° SE 18:43:42 90° NE 18:49:08 10° NW
Cosmos 1408 3.5 18:40:23 10° NNW 18:43:54 47° W 18:47:26 10° S
SeaSat 1 2.4 18:43:27 55° ESE 18:44:16 65° NE 18:49:11 10° NNW
Cosmos 1656 4.1 18:39:10 10° SW 18:44:41 61° WNW 18:50:20 10° NNE
NOSS 3-4 (A) 3.8 18:39:07 10° NW 18:45:56 67° NE 18:48:36 41° ESE
NOSS 3-4 (C) 3.8 18:39:12 10° NW 18:46:02 66° NE 18:48:40 42° ESE
USA 308 3.4 18:43:31 10° WNW 18:47:42 52° SW 18:48:20 47° S
Cosmos 1812 Rocket 3.4 18:43:39 10° S 18:48:03 88° E 18:52:28 10° N
Cosmos 2369 3.6 18:42:59 10° SSW 18:48:41 75° ESE 18:51:18 34° NE
Cosmos 1844 Rocket 4.4 18:45:16 10° N 18:48:28 18° NNE 18:48:28 18° NNE
DEBRIS 4.3 18:31:16 10° WSW 18:50:07 69° SSE 18:51:52 48° E
USA 215 3.4 18:54:35 44° ENE 18:56:25 59° NNE 19:02:50 10° WNW
NOSS 3-3 (A) 3.8 18:50:34 10° SW 18:56:27 84° SE 18:59:03 39° NE
NOSS 3-3 (C) 3.8 18:50:41 10° SW 18:56:34 83° SE 18:59:06 40° NE
Cosmos 2227 Rocket 3.9 18:51:55 10° NW 18:56:51 31° WSW 19:01:45 10° SSW
MOS 1 Rocket 3.3 18:52:44 10° NNE 18:57:26 85° WNW 19:02:24 10° SSW
CSL-04 Rocket 4.0 18:53:24 10° S 18:58:55 68° WSW 19:04:25 10° NNW
Cosmos 2263 Rocket 2.3 18:55:41 10° NNW 19:01:09 57° NE 19:01:09 57° NE
CZ-4 R/B 3.4 19:01:55 10° SSW 19:05:12 26° W 19:08:29 10° NW
Cosmos 2151 3.9 19:02:17 10° N 19:05:02 40° NNW 19:05:02 40° NNW
ATLAS 2AS CENTAUR R/B 2.7 19:00:30 10° NW 19:08:07 71° NE 19:09:28 58° E
Cosmos 1825 3.5 19:05:10 10° NNW 19:08:43 39° W 19:09:13 37° WSW
BREEZE-M R/B 4.0 19:04:27 10° W 19:08:59 71° SSW 19:10:34 53° SE
Lacrosse 5 2.5 19:07:01 10° NW 19:11:26 44° N 19:11:26 44° N
Cosmos 1697 Rocket 2.9 19:08:15 10° SW 19:13:49 66° WNW 19:16:32 31° NNE
Cosmos 1777 Rocket 4.0 19:10:09 10° NNW 19:14:48 71° N 19:14:48 71° N
Cosmos 44 Rocket 4.2 19:14:10 10° SW 19:17:10 39° SSW 19:17:10 39° SSW
SL-4 R/B 3.7 19:16:26 10° WNW 19:18:22 29° W 19:18:22 29° W
Cosmos 1980 Rocket 2.8 19:31:18 10° SSW 19:35:17 47° SW 19:35:17 47° SW
SJ 16-02 4.1 19:55:33 10° NNW 19:55:54 12° NNW 19:55:54 12° NNW
CZ-4C R/B 3.0 19:56:15 10° NW 20:02:11 66° NNW 20:02:11 66° NNW
ATLAS 5 CENTAUR R/B 4.3 20:16:19 10° NNW 20:17:47 17° NNW 20:17:47 17° NNW
USA 215 4.3 20:41:56 39° WNW 20:41:56 39° WNW 20:45:57 10° WNW
Cosmos 2263 Rocket 4.3 20:40:08 10° NW 20:42:52 22° WNW 20:42:52 22° WNW
ATLAS 2AS CENTAUR R/B 4.2 20:52:07 10° NW 20:56:55 30° W 20:56:55 30° W
